When you browse on this site, cookies collect data to enhance your experience and personalize the content and advertising you see.
Visit our Privacy Policy to learn more. By continuing to use the site, you agree to this use of cookies and data.

Meteo orario Pert

Oggi, 20 Settembre, Domenica

Tempo Temperatura Precipitazioni Vento Pressione Umidità
00:00 +10°C° 0.3 mm 8 m/s 758 mm Hg 67%
01:00 +10°C° 0.3 mm 8 m/s 758 mm Hg 67%
02:00 +10°C° 0 mm 8 m/s 758 mm Hg 66%
03:00 +10°C° 0.2 mm 8 m/s 758 mm Hg 66%
04:00 +10°C° 0.2 mm 8 m/s 758 mm Hg 67%
05:00 +11°C° 0.2 mm 8 m/s 758 mm Hg 67%
06:00 +11°C° 0.2 mm 8 m/s 758 mm Hg 66%
07:00 +11°C° 0.2 mm 8 m/s 759 mm Hg 66%
08:00 +12°C° 0 mm 7 m/s 759 mm Hg 68%
09:00 +12°C° 0.3 mm 8 m/s 760 mm Hg 66%
10:00 +13°C° 0.3 mm 8 m/s 760 mm Hg 64%
11:00 +13°C° 0.3 mm 9 m/s 760 mm Hg 62%
12:00 +13°C° 0.2 mm 9 m/s 760 mm Hg 61%
13:00 +15°C° 0.2 mm 9 m/s 760 mm Hg 60%
14:00 +15°C° 0 mm 9 m/s 760 mm Hg 60%
15:00 +13°C° 0.1 mm 8 m/s 761 mm Hg 61%
16:00 +13°C° 0.1 mm 8 m/s 761 mm Hg 62%
17:00 +14°C° 0.1 mm 7 m/s 761 mm Hg 63%
18:00 +12°C° 0.1 mm 7 m/s 762 mm Hg 65%
19:00 +13°C° 0.1 mm 6 m/s 762 mm Hg 67%
20:00 +12°C° 0 mm 5 m/s 763 mm Hg 70%
21:00 +12°C° 0.1 mm 5 m/s 763 mm Hg 70%
22:00 +12°C° 0.1 mm 5 m/s 763 mm Hg 70%
23:00 +12°C° 0.1 mm 5 m/s 763 mm Hg 71%

Domani, 21 Settembre, Lunedi

Tempo Temperatura Precipitazioni Vento Pressione Umidità
00:00 +12°C° 0 mm 4 m/s 763 mm Hg 71%
01:00 +12°C° 0 mm 4 m/s 763 mm Hg 71%
02:00 +12°C° 0 mm 4 m/s 763 mm Hg 71%
03:00 +12°C° 0 mm 4 m/s 764 mm Hg 72%
04:00 +12°C° 0 mm 4 m/s 764 mm Hg 73%
05:00 +12°C° 0 mm 4 m/s 764 mm Hg 73%
06:00 +12°C° 0 mm 3 m/s 764 mm Hg 72%
07:00 +12°C° 0 mm 3 m/s 764 mm Hg 70%
08:00 +13°C° 0 mm 3 m/s 764 mm Hg 68%
09:00 +14°C° 0 mm 3 m/s 764 mm Hg 64%
10:00 +15°C° 0 mm 4 m/s 764 mm Hg 61%
11:00 +17°C° 0 mm 4 m/s 764 mm Hg 57%
12:00 +17°C° 0 mm 4 m/s 764 mm Hg 58%
13:00 +17°C° 0 mm 4 m/s 764 mm Hg 58%
14:00 +16°C° 0 mm 5 m/s 764 mm Hg 59%
15:00 +15°C° 0 mm 5 m/s 764 mm Hg 60%
16:00 +15°C° 0 mm 4 m/s 764 mm Hg 62%
17:00 +15°C° 0 mm 4 m/s 764 mm Hg 63%
18:00 +14°C° 0 mm 4 m/s 764 mm Hg 67%
19:00 +14°C° 0 mm 3 m/s 765 mm Hg 71%
20:00 +14°C° 0 mm 2 m/s 765 mm Hg 75%
21:00 +15°C° 0 mm 2 m/s 765 mm Hg 75%
22:00 +15°C° 0 mm 2 m/s 765 mm Hg 76%
23:00 +15°C° 0 mm 2 m/s 765 mm Hg 76%

Dopodomani, 22 Settembre, Martedi

Tempo Temperatura Precipitazioni Vento Pressione Umidità
00:00 +15°C° 0.1 mm 2 m/s 765 mm Hg 79%
01:00 +14°C° 0.1 mm 2 m/s 764 mm Hg 81%
02:00 +14°C° 0.1 mm 2 m/s 764 mm Hg 83%
03:00 +14°C° 0.2 mm 2 m/s 764 mm Hg 84%
04:00 +15°C° 0.2 mm 2 m/s 764 mm Hg 84%
05:00 +15°C° 0.2 mm 2 m/s 764 mm Hg 85%
06:00 +15°C° 0.2 mm 2 m/s 764 mm Hg 83%
07:00 +16°C° 0.2 mm 2 m/s 765 mm Hg 81%
08:00 +16°C° 0.2 mm 2 m/s 765 mm Hg 79%
09:00 +17°C° 0 mm 2 m/s 765 mm Hg 71%
10:00 +18°C° 0 mm 2 m/s 765 mm Hg 63%
11:00 +19°C° 0 mm 3 m/s 765 mm Hg 55%
12:00 +20°C° 0 mm 3 m/s 765 mm Hg 54%
13:00 +20°C° 0 mm 3 m/s 764 mm Hg 53%
14:00 +20°C° 0 mm 4 m/s 764 mm Hg 52%
15:00 +20°C° 0 mm 4 m/s 764 mm Hg 54%
16:00 +19°C° 0 mm 4 m/s 764 mm Hg 57%
17:00 +18°C° 0 mm 4 m/s 765 mm Hg 60%
18:00 +17°C° 0 mm 3 m/s 765 mm Hg 65%
19:00 +16°C° 0 mm 3 m/s 765 mm Hg 69%
20:00 +14°C° 0 mm 3 m/s 765 mm Hg 73%
21:00 +14°C° 0 mm 2 m/s 766 mm Hg 75%
22:00 +14°C° 0 mm 2 m/s 766 mm Hg 77%
23:00 +13°C° 0 mm 2 m/s 767 mm Hg 79%

23 Settembre, Mercoledi

Tempo Temperatura Precipitazioni Vento Pressione Umidità
00:00 +13°C° 0 mm 2 m/s 766 mm Hg 79%
01:00 +12°C° 0 mm 2 m/s 766 mm Hg 80%
02:00 +12°C° 0 mm 2 m/s 766 mm Hg 80%
03:00 +12°C° 0 mm 2 m/s 766 mm Hg 81%
04:00 +12°C° 0 mm 2 m/s 766 mm Hg 81%
05:00 +10°C° 0 mm 2 m/s 766 mm Hg 82%
06:00 +13°C° 0 mm 2 m/s 766 mm Hg 77%
07:00 +14°C° 0 mm 2 m/s 766 mm Hg 73%
08:00 +15°C° 0 mm 2 m/s 766 mm Hg 68%
09:00 +17°C° 0 mm 2 m/s 766 mm Hg 62%
10:00 +19°C° 0 mm 2 m/s 766 mm Hg 55%
11:00 +23°C° 0 mm 2 m/s 766 mm Hg 48%
12:00 +24°C° 0 mm 2 m/s 765 mm Hg 45%
13:00 +24°C° 0 mm 2 m/s 764 mm Hg 43%
14:00 +25°C° 0 mm 2 m/s 764 mm Hg 41%
15:00 +24°C° 0 mm 2 m/s 764 mm Hg 45%
16:00 +24°C° 0 mm 2 m/s 763 mm Hg 49%
17:00 +22°C° 0 mm 3 m/s 763 mm Hg 53%
18:00 +21°C° 0 mm 3 m/s 763 mm Hg 57%
19:00 +20°C° 0 mm 3 m/s 763 mm Hg 61%
20:00 +18°C° 0 mm 3 m/s 763 mm Hg 65%
21:00 +18°C° 0 mm 3 m/s 763 mm Hg 62%
22:00 +18°C° 0 mm 3 m/s 763 mm Hg 59%
23:00 +17°C° 0 mm 4 m/s 763 mm Hg 57%

24 Settembre, Giovedi

Tempo Temperatura Precipitazioni Vento Pressione Umidità
00:00 +16°C° 0 mm 5 m/s 763 mm Hg 55%
01:00 +16°C° 0 mm 5 m/s 762 mm Hg 53%
02:00 +16°C° 0 mm 6 m/s 762 mm Hg 51%
03:00 +16°C° 0 mm 6 m/s 762 mm Hg 51%
04:00 +15°C° 0 mm 6 m/s 762 mm Hg 51%
05:00 +15°C° 0 mm 6 m/s 762 mm Hg 51%
06:00 +16°C° 0 mm 6 m/s 761 mm Hg 50%
07:00 +16°C° 0 mm 6 m/s 761 mm Hg 49%
08:00 +17°C° 0 mm 7 m/s 761 mm Hg 49%
09:00 +20°C° 0 mm 7 m/s 760 mm Hg 46%
10:00 +22°C° 0 mm 6 m/s 760 mm Hg 43%
11:00 +24°C° 0 mm 6 m/s 759 mm Hg 40%
12:00 +26°C° 0 mm 6 m/s 758 mm Hg 39%
13:00 +27°C° 0 mm 6 m/s 758 mm Hg 38%
14:00 +28°C° 0 mm 5 m/s 757 mm Hg 37%
15:00 +28°C° 0 mm 5 m/s 757 mm Hg 41%
16:00 +27°C° 0 mm 5 m/s 756 mm Hg 44%
17:00 +26°C° 0 mm 4 m/s 756 mm Hg 47%
18:00 +25°C° 0 mm 4 m/s 757 mm Hg 49%
19:00 +22°C° 0 mm 4 m/s 757 mm Hg 51%
20:00 +21°C° 0 mm 4 m/s 757 mm Hg 54%
21:00 +20°C° 0 mm 5 m/s 758 mm Hg 55%
22:00 +19°C° 0 mm 6 m/s 758 mm Hg 57%
23:00 +16°C° 0 mm 7 m/s 758 mm Hg 59%

25 Settembre, Venerdi

Tempo Temperatura Precipitazioni Vento Pressione Umidità
00:00 +16°C° 0 mm 7 m/s 758 mm Hg 62%
01:00 +15°C° 0 mm 7 m/s 758 mm Hg 64%
02:00 +14°C° 0 mm 7 m/s 758 mm Hg 67%
03:00 +14°C° 0 mm 7 m/s 758 mm Hg 68%
04:00 +13°C° 0 mm 6 m/s 759 mm Hg 70%
05:00 +13°C° 0 mm 6 m/s 759 mm Hg 71%
06:00 +13°C° 0 mm 6 m/s 759 mm Hg 69%
07:00 +14°C° 0 mm 7 m/s 759 mm Hg 67%
08:00 +14°C° 0 mm 7 m/s 759 mm Hg 66%
09:00 +16°C° 0 mm 6 m/s 759 mm Hg 61%
10:00 +20°C° 0 mm 6 m/s 759 mm Hg 57%
11:00 +22°C° 0 mm 5 m/s 758 mm Hg 53%
12:00 +23°C° 0 mm 5 m/s 758 mm Hg 51%
13:00 +25°C° 0 mm 4 m/s 757 mm Hg 48%
14:00 +26°C° 0 mm 3 m/s 757 mm Hg 46%
15:00 +25°C° 0 mm 3 m/s 757 mm Hg 53%
16:00 +24°C° 0 mm 3 m/s 757 mm Hg 59%
17:00 +22°C° 0 mm 4 m/s 757 mm Hg 65%
18:00 +21°C° 0 mm 3 m/s 757 mm Hg 72%
19:00 +19°C° 0 mm 2 m/s 757 mm Hg 79%
20:00 +18°C° 0 mm 2 m/s 758 mm Hg 85%
21:00 +18°C° 0 mm 2 m/s 758 mm Hg 87%
22:00 +17°C° 0 mm 2 m/s 758 mm Hg 88%
23:00 +17°C° 0 mm 2 m/s 758 mm Hg 89%
Mostrare altro